Simultaneous Nadir Overpasses (SNOs) Predictions

Prediction of SNOs between GOES-16 and NOAA-19 Satellite Orbit:

Table of predicted SNOs for the next 14.0 days since TLE Epoch: 6/4/2022
Index Date Time (GOES-16) GOES-16 Lat,Lon NOAA-19 Lat,Lon Distance(km) Time Diff (sec)
1 06/05/2022 00:36:34 -0.05, -75.19 0.59, -72.43 314.08 80
2 06/07/2022 12:54:55 0.04, -75.21 0.52, -77.32 240.38 55
3 06/08/2022 12:42:40 0.04, -75.22 -0.15, -74.43 90.09 80
4 06/09/2022 12:30:49 0.04, -75.23 -0.82, -71.54 420.66 80
5 06/11/2022 01:03:17 -0.04, -75.23 -0.98, -79.32 466.94 80
6 06/12/2022 00:54:07 -0.03, -75.24 -0.32, -76.43 136.44 80
7 06/13/2022 00:39:37 -0.03, -75.25 0.39, -73.55 194.08 80
8 06/15/2022 13:02:50 0.02, -75.28 0.76, -78.42 358.41 80
9 06/16/2022 12:51:00 0.01, -75.29 0.08, -75.53 27.66 80
10 06/17/2022 12:36:29 0.01, -75.30 -0.60, -72.65 303.38 80
